TimeEST,TemperatureF,Dew PointF,Humidity,Sea Level PressureIn,VisibilityMPH,Wind Direction,Wind SpeedMPH,Gust SpeedMPH,PrecipitationIn,Events,Conditions,WindDirDegrees,DateUTC
12:15 AM,39.2,37.4,93,30.03,5.0,NE,4.6,-,N/A,Rain,Light Rain,40,2013-02-23 05:15:00
12:35 AM,39.2,37.4,93,30.01,7.0,NE,3.5,-,N/A,Rain,Light Rain,50,2013-02-23 05:35:00
12:55 AM,39.2,37.4,93,30.01,10.0,NNE,3.5,-,N/A,Rain,Light Rain,30,2013-02-23 05:55:00
1:15 AM,39.2,37.4,93,30.00,10.0,NE,3.5,-,N/A,Rain,Rain,40,2013-02-23 06:15:00
1:35 AM,37.4,37.4,100,29.99,10.0,NE,3.5,-,N/A,Rain,Light Rain,40,2013-02-23 06:35:00
1:55 AM,37.4,37.4,100,29.96,7.0,NE,3.5,-,N/A,Rain,Light Rain,40,2013-02-23 06:55:00
2:15 AM,37.4,37.4,100,29.96,10.0,NE,3.5,-,N/A,,Drizzle,40,2013-02-23 07:15:00
2:35 AM,37.4,37.4,100,29.95,5.0,Calm,Calm,-,N/A,Rain,Light Rain,0,2013-02-23 07:35:00
2:55 AM,37.4,37.4,100,29.95,2.5,North,3.5,-,N/A,Rain,Heavy Rain,10,2013-02-23 07:55:00
3:15 AM,37.4,37.4,100,29.95,5.0,North,4.6,-,N/A,Rain,Light Rain,360,2013-02-23 08:15:00
3:35 AM,37.4,37.4,100,29.91,1.2,NNE,4.6,-,N/A,Rain,Light Rain,30,2013-02-23 08:35:00
3:55 AM,37.4,37.4,100,29.91,2.0,NNE,3.5,-,N/A,Rain-Thunderstorm,Light Thunderstorms and Rain,20,2013-02-23 08:55:00
4:15 AM,37.4,37.4,100,29.93,2.0,NNW,4.6,-,N/A,Rain,Light Rain,340,2013-02-23 09:15:00
4:35 AM,37.4,37.4,100,29.92,1.0,NE,3.5,-,N/A,Snow,Light Snow,40,2013-02-23 09:35:00
4:55 AM,37.4,37.4,100,29.92,1.2,Calm,Calm,-,N/A,,Overcast,0,2013-02-23 09:55:00
5:15 AM,37.4,37.4,100,29.88,1.2,NE,3.5,-,N/A,Snow,Light Snow,50,2013-02-23 10:15:00
5:35 AM,37.4,37.4,100,29.92,1.0,East,4.6,-,N/A,,Overcast,80,2013-02-23 10:35:00
5:55 AM,37.4,37.4,100,29.92,5.0,Calm,Calm,-,N/A,Rain,Light Rain,0,2013-02-23 10:55:00
6:15 AM,37.4,37.4,100,29.93,10.0,Calm,Calm,-,N/A,,Light Drizzle,0,2013-02-23 11:15:00
6:35 AM,39.2,37.4,93,29.91,10.0,Calm,Calm,-,N/A,,Light Drizzle,0,2013-02-23 11:35:00
6:55 AM,37.4,37.4,100,29.92,10.0,Calm,Calm,-,N/A,,Overcast,0,2013-02-23 11:55:00
7:15 AM,39.2,37.4,93,29.91,10.0,Calm,Calm,-,N/A,,Light Drizzle,0,2013-02-23 12:15:00
7:35 AM,39.2,39.2,100,29.91,10.0,NE,3.5,-,N/A,,Light Drizzle,50,2013-02-23 12:35:00
7:55 AM,39.2,39.2,100,29.91,10.0,Calm,Calm,-,N/A,,Overcast,0,2013-02-23 12:55:00
8:15 AM,39.2,39.2,100,29.91,10.0,NE,3.5,-,N/A,,Overcast,40,2013-02-23 13:15:00
8:35 AM,39.2,39.2,100,29.90,10.0,Calm,Calm,-,N/A,,Overcast,0,2013-02-23 13:35:00
8:55 AM,41.0,39.2,93,29.92,10.0,Calm,Calm,-,N/A,,Overcast,0,2013-02-23 13:55:00
9:15 AM,41.0,41.0,100,29.91,10.0,Calm,Calm,-,N/A,,Overcast,0,2013-02-23 14:15:00
9:35 AM,41.0,41.0,100,29.93,2.5,NNE,3.5,-,N/A,,Overcast,20,2013-02-23 14:35:00
9:55 AM,41.0,41.0,100,29.93,1.2,Calm,Calm,-,N/A,,Drizzle,0,2013-02-23 14:55:00
10:15 AM,41.0,41.0,100,29.92,1.2,Calm,Calm,-,N/A,,Heavy Drizzle,0,2013-02-23 15:15:00
10:35 AM,41.0,41.0,100,29.93,2.0,North,3.5,-,N/A,,Drizzle,350,2013-02-23 15:35:00
10:55 AM,42.8,41.0,93,29.92,1.8,Calm,Calm,-,N/A,,Drizzle,0,2013-02-23 15:55:00
11:15 AM,42.8,41.0,93,29.92,7.0,Calm,Calm,-,N/A,,Overcast,0,2013-02-23 16:15:00
11:35 AM,42.8,41.0,93,29.93,7.0,Calm,Calm,-,N/A,,Overcast,0,2013-02-23 16:35:00
11:55 AM,42.8,41.0,93,29.93,5.0,NNW,3.5,-,N/A,,Overcast,340,2013-02-23 16:55:00
12:15 PM,42.8,41.0,93,29.91,2.5,Calm,Calm,-,N/A,,Overcast,0,2013-02-23 17:15:00
12:35 PM,42.8,42.8,100,29.90,2.0,Calm,Calm,-,N/A,,Overcast,0,2013-02-23 17:35:00
12:55 PM,42.8,42.8,100,29.90,2.0,Calm,Calm,-,N/A,,Overcast,0,2013-02-23 17:55:00
1:15 PM,42.8,42.8,100,29.90,2.0,Calm,Calm,-,N/A,,Overcast,0,2013-02-23 18:15:00
1:35 PM,42.8,42.8,100,29.89,2.5,Calm,Calm,-,N/A,,Overcast,0,2013-02-23 18:35:00
1:55 PM,42.8,42.8,100,29.88,1.5,Calm,Calm,-,N/A,,Overcast,0,2013-02-23 18:55:00
2:15 PM,42.8,42.8,100,29.88,1.8,Calm,Calm,-,N/A,,Overcast,0,2013-02-23 19:15:00
2:35 PM,42.8,42.8,100,29.87,2.0,Calm,Calm,-,N/A,,Overcast,0,2013-02-23 19:35:00
2:55 PM,42.8,42.8,100,29.87,1.2,NW,3.5,-,N/A,,Overcast,320,2013-02-23 19:55:00
3:15 PM,42.8,42.8,100,29.89,1.8,NW,3.5,-,N/A,,Overcast,320,2013-02-23 20:15:00
3:35 PM,44.6,42.8,93,29.88,2.0,Calm,Calm,-,N/A,,Overcast,0,2013-02-23 20:35:00
3:55 PM,44.6,42.8,93,29.87,2.5,Calm,Calm,-,N/A,,Overcast,0,2013-02-23 20:55:00
4:15 PM,44.6,42.8,93,29.86,2.0,Calm,Calm,-,N/A,,Overcast,0,2013-02-23 21:15:00
4:35 PM,44.6,42.8,93,29.85,1.5,Calm,Calm,-,N/A,,Overcast,0,2013-02-23 21:35:00
4:55 PM,44.6,42.8,93,29.85,1.5,Calm,Calm,-,N/A,,Overcast,0,2013-02-23 21:55:00
5:15 PM,44.6,44.6,100,29.84,4.0,NNW,4.6,-,N/A,,Overcast,340,2013-02-23 22:15:00
5:35 PM,44.6,44.6,100,29.83,5.0,Calm,Calm,-,N/A,,Overcast,0,2013-02-23 22:35:00
5:55 PM,44.6,42.8,93,29.85,3.0,Calm,Calm,-,N/A,,Overcast,0,2013-02-23 22:55:00
6:15 PM,44.6,42.8,93,29.86,5.0,Calm,Calm,-,N/A,,Overcast,0,2013-02-23 23:15:00
6:35 PM,44.6,42.8,93,29.84,5.0,Calm,Calm,-,N/A,,Overcast,0,2013-02-23 23:35:00
6:55 PM,44.6,42.8,93,29.86,5.0,Calm,Calm,-,N/A,,Overcast,0,2013-02-23 23:55:00
7:15 PM,44.6,42.8,93,29.88,7.0,Calm,Calm,-,N/A,,Overcast,0,2013-02-24 00:15:00
7:55 PM,44.6,42.8,93,29.85,5.0,ESE,3.5,-,N/A,,Overcast,120,2013-02-24 00:55:00
8:15 PM,44.6,42.8,93,29.81,3.0,Calm,Calm,-,N/A,,Overcast,0,2013-02-24 01:15:00
8:35 PM,44.6,42.8,93,29.85,3.0,Calm,Calm,-,N/A,,Overcast,0,2013-02-24 01:35:00
8:55 PM,44.6,42.8,93,29.86,2.0,Calm,Calm,-,N/A,,Overcast,0,2013-02-24 01:55:00
9:15 PM,44.6,42.8,93,29.86,2.0,Calm,Calm,-,N/A,,Overcast,0,2013-02-24 02:15:00
9:35 PM,44.6,42.8,93,29.87,2.0,Calm,Calm,-,N/A,,Overcast,0,2013-02-24 02:35:00
9:55 PM,44.6,42.8,93,29.87,2.0,Calm,Calm,-,N/A,,Overcast,0,2013-02-24 02:55:00
10:15 PM,44.6,42.8,93,29.88,2.5,Calm,Calm,-,N/A,,Overcast,0,2013-02-24 03:15:00
10:35 PM,44.6,42.8,93,29.87,1.8,West,3.5,-,N/A,,Overcast,280,2013-02-24 03:35:00
10:55 PM,44.6,42.8,93,29.87,1.8,West,4.6,-,N/A,,Overcast,280,2013-02-24 03:55:00
11:15 PM,44.6,42.8,93,29.87,1.0,West,3.5,-,N/A,,Overcast,270,2013-02-24 04:15:00
11:35 PM,44.6,42.8,93,29.88,0.8,Calm,Calm,-,N/A,,Overcast,0,2013-02-24 04:35:00
11:55 PM,44.6,42.8,93,29.89,0.8,West,3.5,-,N/A,,Overcast,280,2013-02-24 04:55:00